Regional Weather Roundup
Issued by NWS Green Bay, WI

Home | Current Version | Previous Version | Text Only | Print | Product List | Glossary On
Versions: 1 2 3 4 5 6 7 8 9 10 11 12 13 14 15 16 17 18 19 20 21 22 23 24 25 26 27 28 29 30 31 32 33 34 35 36 37 38 39 40 41 42 43 44 45 46 47 48 49 50
000
ASUS43 KGRB 231300
RWRGRB

NORTH-CENTRAL AND NORTHEAST WISCONSIN REGIONAL WEATHER ROUNDUP
NATIONAL WEATHER SERVICE GREEN BAY WI
700 AM CST FRI FEB 23 2018

WIZ005-009-010>012-018-019-231400-
NORTH CENTRAL WISCONSIN

CITY           SKY/WX    TMP DP  RH WIND       PRES   REMARKS
IRONWOOD       LGT SNOW  24  23  96 CALM      29.99F FOG
MANITOWISH WTR NOT AVBL
ARBOR VITAE    NOT AVBL
EAGLE RIVER    LGT SNOW  28  28 100 CALM      29.96F
LAND O LAKES   LGT SNOW  27  26  96 SE3       29.98S VSB 1
RHINELANDER    LGT SNOW  28  28 100 S3        29.98F FOG
PHILLIPS       LGT SNOW  25  25 100 CALM      29.97F
ANTIGO         NOT AVBL
TOMAHAWK       NOT AVBL
MERRILL        LGT SNOW  29  29 100 CALM      30.00F
$$

WIZ013-073-231400-
NORTHEAST WISCONSIN

CITY           SKY/WX    TMP DP  RH WIND       PRES   REMARKS
IRON MOUNTAIN  LGT SNOW  28  26  92 SE5       30.00F VSB 3/4
MARINETTE      MIX PCPN  32  31  96 S5        30.05F FOG
$$

WIZ017-030-035>037-045-231400-
CENTRAL WISCONSIN

CITY           SKY/WX    TMP DP  RH WIND       PRES   REMARKS
MEDFORD        NOT AVBL
WAUSAU         LGT SNOW  30  30 100 CALM      29.99S FOG
MOSINEE        DRZL/FOG  30  30 100 S5        30.01S VSB 1
MARSHFIELD     CLOUDY    31  31 100 S6        29.99F FOG
WISC RAPIDS    CLOUDY    32  30  92 SW3       30.03S FOG
STEVENS POINT  NOT AVBL
WAUPACA        CLOUDY    34  32  94 CALM      30.03S FOG
SHAWANO        DRIZZLE   34  32  93 CALM      30.03S
CLINTONVILLE   MIX PCPN  32  32  98 CALM      30.03S
WAUTOMA        CLOUDY    32  31  96 S3        30.04R FOG
$$

WIZ038-039-048-051-231400-
FOX VALLEY

CITY           SKY/WX    TMP DP  RH WIND       PRES   REMARKS
NWS GREEN BAY  LGT RAIN  34  32  92 S7        30.03F FOG
APPLETON       LGT RAIN  34  34 100 S7        30.01F FOG
OSHKOSH        LGT RAIN  35  34  96 S9        30.03S FOG
FOND DU LAC    CLOUDY    36  33  89 S9        30.03F FOG
$$

WIZ022-050-052-231400-
EAST CENTRAL WISCONSIN

CITY           SKY/WX    TMP DP  RH WIND       PRES   REMARKS
EPHRAIM        NOT AVBL
WASHINGTON ISL NOT AVBL
STURGEON BAY   LGT RAIN  33  32  96 S14       30.04F FOG
MANITOWOC      RAIN      35  34  96 S12       30.05F FOG
SHEBOYGAN      LGT RAIN  35  35 100 S14       30.05F FOG
$$

LMZ563-521-522-541>543-231400-
LAKESHORE

STATION/POSITION TIME  TEMP    WIND        PRES    VSBY  WAVE
                       AIR SEA DIR/SP/G                  HT/PER
                 (UTC) (F)     (DEG/KT/KT) (MB)    (MI)  (FT/S)
SHEBOYGAN LKSHOR 1200   35     180/ 17/ 19 1019.0R
KEWAUNEE LKSHORE 1230   34     180/ 13/ 16 1017.4F
NORTHPORT PIER   1240   33                 1017.9F
SISTER BAY LKSHO 1220   33     160/  5/  8   N/A
MENOMINEE LKSHOR 1230   32      30/  4/  6 1017.3F
$$




USA.gov is the U.S. government's official web portal to all federal, state and local government web resources and services.